VLG1XG LEZL-GCRR

Flight info

Callsign VLG1XG
Flight time 2h 1m
Altitude 37000
Route CLANA N857 KORNO UN857 TERTO
Aircraft A320/M-SDE3FGHIRWY/LB1

Departure

Time 2026-05-08 19:14
Airport Seville Airport (LEZL)

Arrival

Time 2026-05-08 21:15
Airport César Manrique-Lanzarote Airport (GCRR)
Time Latitude Longitude Altitude Speed Heading
2026-05-08 18:38 37.42277 -5.89882 96 ft 0 kts 315°
2026-05-08 19:03 37.42260 -5.89861 96 ft 4 kts 319°
2026-05-08 19:03 37.42239 -5.89840 94 ft 4 kts 330°
2026-05-08 19:03 37.42215 -5.89829 93 ft 4 kts
2026-05-08 19:04 37.42203 -5.89834 94 ft 0 kts 45°
2026-05-08 19:06 37.42213 -5.89822 94 ft 5 kts 45°
2026-05-08 19:06 37.42255 -5.89770 94 ft 11 kts 48°
2026-05-08 19:06 37.42232 -5.89679 94 ft 13 kts 135°
2026-05-08 19:07 37.42166 -5.89593 95 ft 14 kts 134°
2026-05-08 19:07 37.42099 -5.89505 97 ft 14 kts 134°
2026-05-08 19:07 37.42029 -5.89415 98 ft 14 kts 135°
2026-05-08 19:07 37.41982 -5.89333 100 ft 12 kts 102°
2026-05-08 19:08 37.41983 -5.89222 100 ft 14 kts 90°
2026-05-08 19:08 37.41983 -5.89096 101 ft 15 kts 89°
2026-05-08 19:08 37.41985 -5.88959 101 ft 16 kts 92°
2026-05-08 19:08 37.41984 -5.88827 102 ft 14 kts 89°
2026-05-08 19:09 37.41985 -5.88705 103 ft 14 kts 89°
2026-05-08 19:09 37.41986 -5.88580 104 ft 15 kts 90°
2026-05-08 19:09 37.41986 -5.88442 105 ft 16 kts 90°
2026-05-08 19:09 37.41986 -5.88297 105 ft 17 kts 90°
2026-05-08 19:10 37.41986 -5.88146 106 ft 13 kts 89°
2026-05-08 19:10 37.41987 -5.88024 107 ft 15 kts 89°
2026-05-08 19:10 37.41987 -5.87888 107 ft 16 kts 90°
2026-05-08 19:10 37.41988 -5.87740 108 ft 17 kts 89°
2026-05-08 19:11 37.41988 -5.87582 109 ft 17 kts 92°
2026-05-08 19:11 37.41943 -5.87454 112 ft 15 kts 134°
2026-05-08 19:11 37.41853 -5.87435 116 ft 12 kts 192°
2026-05-08 19:11 37.41799 -5.87460 116 ft 5 kts 238°
2026-05-08 19:12 37.41800 -5.87473 117 ft 0 kts 271°
2026-05-08 19:13 37.41800 -5.87476 117 ft 1 kts 271°
2026-05-08 19:13 37.41799 -5.87707 113 ft 62 kts 270°
2026-05-08 19:13 37.41797 -5.88523 106 ft 120 kts 270°
2026-05-08 19:14 37.41791 -5.89754 227 ft 151 kts 265°
2026-05-08 19:14 37.41851 -5.91044 890 ft 148 kts 276°
2026-05-08 19:14 37.42032 -5.92332 1436 ft 155 kts 276°
2026-05-08 19:14 37.42264 -5.93754 1754 ft 177 kts 278°
2026-05-08 19:15 37.42533 -5.95368 2027 ft 200 kts 278°
2026-05-08 19:15 37.42832 -5.97196 2330 ft 226 kts 277°
2026-05-08 19:15 37.43161 -5.99238 2761 ft 250 kts 277°
2026-05-08 19:15 37.43481 -6.01447 3459 ft 260 kts 269°
2026-05-08 19:16 37.43249 -6.03670 4320 ft 257 kts 245°
2026-05-08 19:16 37.42323 -6.05568 5177 ft 256 kts 221°
2026-05-08 19:16 37.40877 -6.06863 6073 ft 256 kts 208°
2026-05-08 19:16 37.39333 -6.08008 6947 ft 259 kts 208°
2026-05-08 19:17 37.37770 -6.09163 7857 ft 261 kts 208°
2026-05-08 19:17 37.36212 -6.10315 8875 ft 259 kts 208°
2026-05-08 19:17 37.34653 -6.11467 9787 ft 260 kts 209°
2026-05-08 19:17 37.33081 -6.12625 10295 ft 275 kts 209°
2026-05-08 19:18 37.31357 -6.13894 10508 ft 298 kts 210°
2026-05-08 19:18 37.29501 -6.15263 10752 ft 318 kts 210°
2026-05-08 19:18 37.27571 -6.16690 11343 ft 324 kts 210°
2026-05-08 19:18 37.25622 -6.18131 12083 ft 326 kts 210°
2026-05-08 19:19 37.23664 -6.19576 12852 ft 327 kts 211°
2026-05-08 19:19 37.21696 -6.21027 13622 ft 328 kts 211°
2026-05-08 19:19 37.19727 -6.22480 14293 ft 329 kts 211°
2026-05-08 19:19 37.17744 -6.23942 14921 ft 330 kts 211°
2026-05-08 19:20 37.15786 -6.25384 15543 ft 331 kts 211°
2026-05-08 19:20 37.15116 -6.25877 15799 ft 329 kts 211°
2026-05-08 19:20 37.11821 -6.28304 16837 ft 333 kts 211°
2026-05-08 19:20 37.09812 -6.29785 17453 ft 336 kts 211°
2026-05-08 19:21 37.07793 -6.31271 18061 ft 337 kts 211°
2026-05-08 19:21 37.05762 -6.32763 18611 ft 340 kts 211°
2026-05-08 19:21 37.03714 -6.34261 19153 ft 342 kts 211°
2026-05-08 19:21 37.01715 -6.35897 19681 ft 344 kts 216°
2026-05-08 19:22 36.99780 -6.37679 20227 ft 346 kts 217°
2026-05-08 19:22 36.97854 -6.39508 20738 ft 349 kts 217°
2026-05-08 19:22 36.95925 -6.41363 21244 ft 351 kts 217°
2026-05-08 19:22 36.93984 -6.43229 21725 ft 353 kts 217°
2026-05-08 19:23 36.92025 -6.45100 22203 ft 355 kts 217°
2026-05-08 19:23 36.90054 -6.46973 22724 ft 357 kts 217°
2026-05-08 19:23 36.88094 -6.48827 23231 ft 358 kts 217°
2026-05-08 19:23 36.86098 -6.50708 23673 ft 360 kts 217°
2026-05-08 19:24 36.84113 -6.52576 24270 ft 355 kts 217°
2026-05-08 19:24 36.82148 -6.54425 24797 ft 353 kts 217°
2026-05-08 19:24 36.80178 -6.56278 25228 ft 353 kts 217°
2026-05-08 19:24 36.78213 -6.58124 25648 ft 354 kts 217°
2026-05-08 19:25 36.76244 -6.59975 26067 ft 355 kts 217°
2026-05-08 19:25 36.74270 -6.61831 26489 ft 356 kts 217°
2026-05-08 19:25 36.72290 -6.63692 26911 ft 357 kts 218°
2026-05-08 19:25 36.70301 -6.65556 27331 ft 358 kts 218°
2026-05-08 19:26 36.68305 -6.67425 27741 ft 359 kts 218°
2026-05-08 19:26 36.66303 -6.69297 28150 ft 360 kts 218°
2026-05-08 19:26 36.64322 -6.71151 28543 ft 361 kts 218°
2026-05-08 19:26 36.62311 -6.73035 28931 ft 363 kts 218°
2026-05-08 19:27 36.60294 -6.74922 29434 ft 361 kts 218°
2026-05-08 19:27 36.58288 -6.76794 30017 ft 359 kts 218°
2026-05-08 19:27 36.56300 -6.78651 30519 ft 356 kts 218°
2026-05-08 19:27 36.54328 -6.80492 30993 ft 353 kts 218°
2026-05-08 19:28 36.52363 -6.82317 31454 ft 351 kts 218°
2026-05-08 19:28 36.50406 -6.84125 31933 ft 349 kts 218°
2026-05-08 19:28 36.48458 -6.85916 32504 ft 346 kts 217°
2026-05-08 19:28 36.46532 -6.87687 33063 ft 342 kts 217°
2026-05-08 19:29 36.44626 -6.89444 33591 ft 340 kts 217°
2026-05-08 19:29 36.42736 -6.91189 34070 ft 337 kts 217°
2026-05-08 19:29 36.40858 -6.92926 34460 ft 336 kts 218°
2026-05-08 19:29 36.38982 -6.94659 34787 ft 336 kts 218°
2026-05-08 19:30 36.37102 -6.96393 35092 ft 337 kts 218°
2026-05-08 19:30 36.35217 -6.98126 35390 ft 337 kts 218°
2026-05-08 19:30 36.33329 -6.99861 35687 ft 338 kts 218°
2026-05-08 19:30 36.31438 -7.01598 35972 ft 338 kts 218°
2026-05-08 19:31 36.29544 -7.03336 36253 ft 339 kts 218°
2026-05-08 19:31 36.27671 -7.05052 36490 ft 339 kts 218°
2026-05-08 19:31 36.25769 -7.06790 36759 ft 340 kts 218°
2026-05-08 19:31 36.23860 -7.08535 36878 ft 342 kts 218°
2026-05-08 19:32 36.21932 -7.10300 36904 ft 346 kts 218°
2026-05-08 19:32 36.18049 -7.13856 36898 ft 348 kts 218°
2026-05-08 19:33 36.14161 -7.17417 36896 ft 348 kts 218°
2026-05-08 19:33 36.10264 -7.20978 36898 ft 348 kts 218°
2026-05-08 19:34 36.06364 -7.24531 36901 ft 348 kts 217°
2026-05-08 19:34 36.02481 -7.28064 36869 ft 349 kts 217°
2026-05-08 19:35 35.98563 -7.31626 36872 ft 350 kts 217°
2026-05-08 19:35 35.94634 -7.35197 36893 ft 350 kts 217°
2026-05-08 19:36 35.90737 -7.38742 36909 ft 350 kts 217°
2026-05-08 19:36 35.86806 -7.42300 36908 ft 350 kts 217°
2026-05-08 19:37 35.82875 -7.45851 36910 ft 350 kts 217°
2026-05-08 19:37 35.78948 -7.49410 36915 ft 350 kts 217°
2026-05-08 19:38 35.75030 -7.52976 36916 ft 350 kts 218°
2026-05-08 19:38 35.71108 -7.56537 36916 ft 350 kts 217°
2026-05-08 19:39 35.67179 -7.60091 36936 ft 350 kts 217°
2026-05-08 19:39 35.63250 -7.63645 36915 ft 350 kts 217°
2026-05-08 19:40 35.59312 -7.67197 36915 ft 351 kts 217°
2026-05-08 19:40 35.55406 -7.70731 36913 ft 351 kts 217°
2026-05-08 19:41 35.51464 -7.74283 36914 ft 351 kts 217°
2026-05-08 19:41 35.47523 -7.77820 36889 ft 351 kts 217°
2026-05-08 19:42 35.43577 -7.81368 36901 ft 351 kts 217°
2026-05-08 19:42 35.39665 -7.84950 36906 ft 351 kts 219°
2026-05-08 19:43 35.35907 -7.88710 36915 ft 351 kts 220°
2026-05-08 19:43 35.32580 -7.93057 36906 ft 351 kts 227°
2026-05-08 19:44 35.28957 -7.97035 36919 ft 350 kts 217°
2026-05-08 19:44 35.24980 -8.00501 36913 ft 351 kts 217°
2026-05-08 19:45 35.21720 -8.03475 36878 ft 351 kts 219°
2026-05-08 19:45 35.17282 -8.07806 36899 ft 351 kts 220°
2026-05-08 19:46 35.14109 -8.10965 36908 ft 351 kts 220°
2026-05-08 19:46 35.08420 -8.16611 36913 ft 351 kts 220°
2026-05-08 19:47 35.04616 -8.20344 36911 ft 351 kts 219°
2026-05-08 19:47 35.00834 -8.24043 36912 ft 351 kts 219°
2026-05-08 19:48 34.97032 -8.27773 36915 ft 350 kts 219°
2026-05-08 19:48 34.93234 -8.31501 36886 ft 350 kts 220°
2026-05-08 19:49 34.89433 -8.35225 36936 ft 351 kts 220°
2026-05-08 19:49 34.85629 -8.38949 36928 ft 351 kts 220°
2026-05-08 19:50 34.81821 -8.42668 36925 ft 351 kts 220°
2026-05-08 19:50 34.78010 -8.46377 36921 ft 351 kts 220°
2026-05-08 19:51 34.74201 -8.50087 36916 ft 351 kts 220°
2026-05-08 19:51 34.70391 -8.53794 36915 ft 351 kts 220°
2026-05-08 19:52 34.66583 -8.57498 36897 ft 351 kts 220°
2026-05-08 19:52 34.62768 -8.61196 36909 ft 351 kts 220°
2026-05-08 19:53 34.58973 -8.64860 36911 ft 351 kts 220°
2026-05-08 19:53 34.55164 -8.68553 36912 ft 350 kts 220°
2026-05-08 19:54 34.51358 -8.72237 36958 ft 350 kts 220°
2026-05-08 19:54 34.47552 -8.75911 36920 ft 349 kts 220°
2026-05-08 19:55 34.43748 -8.79572 36908 ft 349 kts 220°
2026-05-08 19:55 34.39945 -8.83241 36882 ft 349 kts 220°
2026-05-08 19:56 34.36139 -8.86905 36898 ft 349 kts 220°
2026-05-08 19:56 34.32329 -8.90554 36902 ft 349 kts 220°
2026-05-08 19:57 34.28547 -8.94188 36903 ft 349 kts 220°
2026-05-08 19:57 34.24739 -8.97834 36905 ft 349 kts 220°
2026-05-08 19:58 34.20933 -9.01483 36910 ft 349 kts 220°
2026-05-08 19:58 34.17126 -9.05132 36917 ft 349 kts 220°
2026-05-08 19:59 34.13314 -9.08773 36863 ft 350 kts 220°
2026-05-08 19:59 34.09488 -9.12411 36912 ft 350 kts 220°
2026-05-08 20:00 34.05666 -9.16046 36917 ft 350 kts 220°
2026-05-08 20:00 34.01845 -9.19684 36920 ft 350 kts 220°
2026-05-08 20:01 33.98024 -9.23318 36921 ft 350 kts 220°
2026-05-08 20:01 33.94195 -9.26946 36921 ft 350 kts 220°
2026-05-08 20:02 33.90369 -9.30580 36921 ft 350 kts 220°
2026-05-08 20:02 33.86558 -9.34192 36921 ft 351 kts 220°
2026-05-08 20:03 33.82722 -9.37810 36900 ft 350 kts 220°
2026-05-08 20:03 33.78889 -9.41433 36913 ft 351 kts 220°
2026-05-08 20:04 33.75052 -9.45055 36920 ft 351 kts 220°
2026-05-08 20:04 33.71214 -9.48666 36925 ft 349 kts 221°
2026-05-08 20:05 33.67398 -9.52264 36921 ft 349 kts 221°
2026-05-08 20:05 33.63567 -9.55871 36924 ft 350 kts 221°
2026-05-08 20:06 33.59754 -9.59452 36927 ft 350 kts 221°
2026-05-08 20:06 33.55910 -9.63056 36899 ft 350 kts 221°
2026-05-08 20:07 33.52067 -9.66666 36918 ft 350 kts 221°
2026-05-08 20:07 33.48248 -9.70243 36925 ft 350 kts 221°
2026-05-08 20:08 33.44402 -9.73835 36939 ft 350 kts 221°
2026-05-08 20:08 33.40559 -9.77418 36940 ft 350 kts 221°
2026-05-08 20:09 33.36713 -9.81004 36937 ft 350 kts 221°
2026-05-08 20:09 33.32868 -9.84581 36946 ft 350 kts 221°
2026-05-08 20:10 33.29028 -9.88155 36917 ft 349 kts 221°
2026-05-08 20:10 33.25194 -9.91732 36909 ft 350 kts 221°
2026-05-08 20:11 33.21350 -9.95306 36921 ft 350 kts 221°
2026-05-08 20:11 33.17503 -9.98871 36927 ft 350 kts 221°
2026-05-08 20:12 33.13652 -10.02427 36929 ft 350 kts 221°
2026-05-08 20:12 33.09823 -10.05961 36931 ft 350 kts 221°
2026-05-08 20:13 33.05975 -10.09523 36940 ft 350 kts 221°
2026-05-08 20:13 33.02128 -10.13081 36935 ft 350 kts 221°
2026-05-08 20:14 32.98271 -10.16634 36936 ft 350 kts 221°
2026-05-08 20:14 32.94416 -10.20181 36943 ft 350 kts 221°
2026-05-08 20:15 32.90549 -10.23734 36940 ft 352 kts 221°
2026-05-08 20:15 32.86665 -10.27291 36932 ft 353 kts 221°
2026-05-08 20:16 32.82766 -10.30864 36934 ft 354 kts 221°
2026-05-08 20:16 32.78894 -10.34414 36933 ft 354 kts 221°
2026-05-08 20:17 32.74991 -10.37985 36935 ft 354 kts 221°
2026-05-08 20:17 32.71084 -10.41561 36900 ft 354 kts 221°
2026-05-08 20:18 32.67182 -10.45124 36922 ft 354 kts 221°
2026-05-08 20:18 32.63278 -10.48679 36932 ft 353 kts 221°
2026-05-08 20:19 32.59372 -10.52236 36946 ft 353 kts 221°
2026-05-08 20:19 32.55475 -10.55783 36948 ft 353 kts 221°
2026-05-08 20:20 32.51567 -10.59330 36965 ft 354 kts 221°
2026-05-08 20:20 32.47641 -10.62891 36950 ft 356 kts 221°
2026-05-08 20:21 32.43726 -10.66441 36939 ft 357 kts 221°
2026-05-08 20:21 32.39784 -10.70008 36919 ft 357 kts 221°
2026-05-08 20:22 32.35840 -10.73573 36941 ft 356 kts 221°
2026-05-08 20:22 32.32558 -10.76533 36953 ft 356 kts 221°
2026-05-08 20:23 32.27946 -10.80685 36958 ft 356 kts 221°
2026-05-08 20:23 32.24004 -10.84241 36959 ft 356 kts 222°
2026-05-08 20:24 32.20094 -10.87767 36959 ft 356 kts 221°
2026-05-08 20:24 32.16152 -10.91310 36959 ft 356 kts 221°
2026-05-08 20:25 32.12211 -10.94850 36942 ft 356 kts 222°
2026-05-08 20:25 32.08266 -10.98394 36944 ft 357 kts 222°
2026-05-08 20:26 32.04309 -11.01944 36946 ft 358 kts 222°
2026-05-08 20:26 32.00344 -11.05501 36953 ft 358 kts 222°
2026-05-08 20:27 31.96370 -11.09049 36959 ft 359 kts 222°
2026-05-08 20:27 31.92418 -11.12575 36962 ft 359 kts 222°
2026-05-08 20:28 31.88439 -11.16124 36968 ft 359 kts 222°
2026-05-08 20:28 31.84457 -11.19674 36907 ft 359 kts 223°
2026-05-08 20:29 31.80481 -11.23211 36943 ft 358 kts 223°
2026-05-08 20:29 31.76507 -11.26745 36959 ft 358 kts 223°
2026-05-08 20:30 31.72541 -11.30277 36967 ft 358 kts 223°
2026-05-08 20:30 31.68583 -11.33821 36982 ft 358 kts 223°
2026-05-08 20:31 31.64610 -11.37370 36980 ft 359 kts 223°
2026-05-08 20:31 31.60644 -11.40898 36980 ft 360 kts 223°
2026-05-08 20:32 31.56646 -11.44450 36976 ft 361 kts 223°
2026-05-08 20:32 31.52650 -11.47988 36941 ft 359 kts 224°
2026-05-08 20:33 31.48669 -11.51517 36966 ft 359 kts 224°
2026-05-08 20:33 31.44685 -11.55049 36973 ft 359 kts 224°
2026-05-08 20:34 31.41381 -11.57977 36980 ft 359 kts 224°
2026-05-08 20:35 31.35401 -11.63263 36982 ft 359 kts 224°
2026-05-08 20:35 31.31409 -11.66784 36990 ft 359 kts 224°
2026-05-08 20:36 31.27420 -11.70302 36990 ft 359 kts 224°
2026-05-08 20:36 31.23435 -11.73812 36961 ft 359 kts 224°
2026-05-08 20:37 31.19451 -11.77327 36977 ft 359 kts 224°
2026-05-08 20:37 31.15468 -11.80829 36986 ft 359 kts 224°
2026-05-08 20:38 31.11500 -11.84309 36994 ft 358 kts 224°
2026-05-08 20:38 31.07517 -11.87806 36996 ft 358 kts 224°
2026-05-08 20:39 31.03533 -11.91292 36995 ft 358 kts 224°
2026-05-08 20:39 30.99540 -11.94781 36995 ft 358 kts 224°
2026-05-08 20:40 30.95553 -11.98261 36941 ft 357 kts 225°
2026-05-08 20:40 30.91577 -12.01740 36962 ft 357 kts 225°
2026-05-08 20:41 30.87601 -12.05215 36985 ft 358 kts 225°
2026-05-08 20:41 30.83603 -12.08694 36987 ft 359 kts 225°
2026-05-08 20:42 30.79632 -12.12150 36991 ft 359 kts 225°
2026-05-08 20:42 30.75627 -12.15628 36994 ft 359 kts 225°
2026-05-08 20:43 30.71620 -12.19118 37006 ft 360 kts 225°
2026-05-08 20:43 30.67612 -12.22598 37007 ft 360 kts 225°
2026-05-08 20:44 30.63596 -12.26082 36963 ft 360 kts 225°
2026-05-08 20:44 30.59578 -12.29562 36981 ft 361 kts 225°
2026-05-08 20:45 30.55553 -12.33037 36994 ft 361 kts 225°
2026-05-08 20:45 30.51542 -12.36502 37002 ft 361 kts 225°
2026-05-08 20:46 30.47503 -12.39976 37010 ft 361 kts 225°
2026-05-08 20:46 30.43489 -12.43426 37021 ft 361 kts 226°
2026-05-08 20:47 30.39439 -12.46903 37014 ft 362 kts 226°
2026-05-08 20:47 30.35385 -12.50382 36973 ft 362 kts 226°
2026-05-08 20:48 30.31327 -12.53863 36838 ft 364 kts 226°
2026-05-08 20:48 30.29379 -12.55690 36581 ft 357 kts 230°
2026-05-08 20:48 30.27547 -12.57618 36327 ft 356 kts 231°
2026-05-08 20:48 30.25738 -12.59576 36083 ft 355 kts 231°
2026-05-08 20:49 30.23943 -12.61543 35843 ft 355 kts 232°
2026-05-08 20:49 30.22151 -12.63512 35600 ft 355 kts 232°
2026-05-08 20:49 30.20359 -12.65477 35356 ft 355 kts 232°
2026-05-08 20:49 30.18560 -12.67440 35118 ft 356 kts 231°
2026-05-08 20:50 30.16633 -12.69273 34727 ft 364 kts 224°
2026-05-08 20:50 30.14528 -12.70916 34070 ft 366 kts 224°
2026-05-08 20:50 30.12392 -12.72545 33256 ft 369 kts 223°
2026-05-08 20:50 30.10266 -12.74149 32508 ft 370 kts 223°
2026-05-08 20:51 30.08104 -12.75775 31738 ft 371 kts 223°
2026-05-08 20:51 30.05943 -12.77402 30989 ft 371 kts 223°
2026-05-08 20:51 30.03775 -12.79038 30121 ft 374 kts 222°
2026-05-08 20:51 30.01594 -12.80691 29388 ft 371 kts 222°
2026-05-08 20:52 29.99456 -12.82303 28930 ft 363 kts 222°
2026-05-08 20:52 29.97359 -12.83868 28463 ft 357 kts 219°
2026-05-08 20:52 29.95108 -12.85046 28359 ft 351 kts 213°
2026-05-08 20:53 29.90623 -12.87181 28197 ft 350 kts 214°
2026-05-08 20:53 29.86141 -12.89351 28035 ft 351 kts 214°
2026-05-08 20:53 29.83883 -12.90439 27951 ft 351 kts 214°
2026-05-08 20:54 29.81631 -12.91519 27874 ft 351 kts 213°
2026-05-08 20:54 29.79377 -12.92597 27639 ft 351 kts 213°
2026-05-08 20:54 29.77130 -12.93668 27126 ft 348 kts 213°
2026-05-08 20:54 29.74898 -12.94725 26607 ft 346 kts 213°
2026-05-08 20:55 29.72666 -12.95786 26115 ft 347 kts 213°
2026-05-08 20:55 29.70438 -12.96846 25609 ft 346 kts 213°
2026-05-08 20:55 29.68214 -12.97900 25101 ft 344 kts 213°
2026-05-08 20:55 29.66006 -12.98948 24575 ft 343 kts 213°
2026-05-08 20:56 29.63799 -13.00002 24000 ft 344 kts 212°
2026-05-08 20:56 29.61588 -13.01064 23391 ft 345 kts 212°
2026-05-08 20:56 29.59379 -13.02132 22777 ft 344 kts 212°
2026-05-08 20:56 29.57177 -13.03198 22244 ft 341 kts 212°
2026-05-08 20:57 29.55024 -13.04240 21722 ft 339 kts 212°
2026-05-08 20:57 29.52863 -13.05286 21220 ft 336 kts 212°
2026-05-08 20:57 29.50721 -13.06323 20725 ft 333 kts 212°
2026-05-08 20:57 29.48597 -13.07346 20243 ft 329 kts 212°
2026-05-08 20:58 29.46491 -13.08359 19777 ft 326 kts 211°
2026-05-08 20:58 29.44407 -13.09359 19294 ft 324 kts 211°
2026-05-08 20:58 29.42336 -13.10358 18835 ft 322 kts 211°
2026-05-08 20:58 29.40272 -13.11354 18353 ft 321 kts 211°
2026-05-08 20:59 29.38215 -13.12336 17859 ft 320 kts 208°
2026-05-08 20:59 29.36017 -13.12924 17772 ft 329 kts 199°
2026-05-08 20:59 29.33750 -13.13380 17702 ft 330 kts 200°
2026-05-08 20:59 29.31500 -13.13905 17629 ft 330 kts 201°
2026-05-08 21:00 29.29250 -13.14490 17551 ft 330 kts 202°
2026-05-08 21:00 29.27044 -13.15089 17357 ft 330 kts 202°
2026-05-08 21:00 29.24812 -13.15697 16856 ft 328 kts 202°
2026-05-08 21:00 29.22598 -13.16290 16339 ft 326 kts 202°
2026-05-08 21:01 29.20386 -13.16872 15804 ft 325 kts 201°
2026-05-08 21:01 29.18184 -13.17445 15276 ft 325 kts 201°
2026-05-08 21:01 29.15981 -13.18016 14721 ft 324 kts 201°
2026-05-08 21:01 29.13780 -13.18586 14212 ft 324 kts 201°
2026-05-08 21:02 29.11584 -13.19156 13646 ft 324 kts 200°
2026-05-08 21:02 29.09382 -13.19731 13076 ft 323 kts 200°
2026-05-08 21:02 29.07193 -13.20300 12538 ft 322 kts 200°
2026-05-08 21:02 29.05007 -13.20864 12003 ft 321 kts 200°
2026-05-08 21:03 29.02829 -13.21425 11466 ft 321 kts 200°
2026-05-08 21:03 29.00711 -13.21968 10942 ft 321 kts 199°
2026-05-08 21:03 28.98548 -13.22522 10626 ft 314 kts 199°
2026-05-08 21:03 28.96485 -13.23049 10515 ft 302 kts 199°
2026-05-08 21:04 28.94476 -13.23562 10395 ft 290 kts 200°
2026-05-08 21:04 28.92536 -13.24058 10243 ft 282 kts 200°
2026-05-08 21:04 28.90643 -13.24545 10114 ft 275 kts 200°
2026-05-08 21:04 28.88772 -13.25032 10057 ft 276 kts 200°
2026-05-08 21:05 28.86893 -13.25527 9887 ft 277 kts 202°
2026-05-08 21:05 28.85201 -13.26411 9749 ft 263 kts 222°
2026-05-08 21:05 28.83814 -13.27753 9604 ft 262 kts 226°
2026-05-08 21:05 28.82448 -13.29128 9487 ft 262 kts 226°
2026-05-08 21:06 28.81082 -13.30506 9373 ft 262 kts 226°
2026-05-08 21:06 28.79719 -13.31884 9236 ft 262 kts 226°
2026-05-08 21:06 28.78356 -13.33266 9110 ft 262 kts 226°
2026-05-08 21:06 28.77007 -13.34663 8994 ft 260 kts 231°
2026-05-08 21:07 28.76062 -13.36370 8847 ft 254 kts 252°
2026-05-08 21:07 28.75683 -13.38325 8725 ft 253 kts 261°
2026-05-08 21:07 28.75375 -13.40301 8598 ft 253 kts 261°
2026-05-08 21:07 28.75074 -13.42253 8473 ft 254 kts 261°
2026-05-08 21:08 28.74770 -13.44234 8344 ft 254 kts 261°
2026-05-08 21:08 28.74463 -13.46235 7956 ft 258 kts 261°
2026-05-08 21:08 28.74150 -13.48256 7569 ft 258 kts 261°
2026-05-08 21:08 28.73832 -13.50286 7113 ft 261 kts 261°
2026-05-08 21:09 28.73517 -13.52307 6831 ft 258 kts 261°
2026-05-08 21:09 28.73204 -13.54313 6415 ft 255 kts 261°
2026-05-08 21:09 28.72904 -13.56305 5743 ft 254 kts 265°
2026-05-08 21:09 28.72974 -13.58301 5123 ft 252 kts 282°
2026-05-08 21:10 28.73458 -13.60183 4790 ft 239 kts 287°
2026-05-08 21:10 28.73930 -13.61921 4670 ft 220 kts 287°
2026-05-08 21:10 28.74356 -13.63517 4576 ft 201 kts 287°
2026-05-08 21:10 28.74752 -13.65016 4495 ft 196 kts 286°
2026-05-08 21:11 28.75251 -13.66525 4401 ft 209 kts 299°
2026-05-08 21:11 28.76193 -13.67805 4193 ft 215 kts 317°
2026-05-08 21:11 28.77502 -13.68684 3777 ft 224 kts 336°
2026-05-08 21:11 28.79093 -13.68988 3217 ft 241 kts 359°
2026-05-08 21:12 28.80729 -13.68523 2847 ft 243 kts 21°
2026-05-08 21:12 28.82204 -13.67674 2501 ft 230 kts 23°
2026-05-08 21:12 28.83550 -13.66882 2198 ft 212 kts 23°
2026-05-08 21:12 28.84816 -13.66147 1964 ft 196 kts 22°
2026-05-08 21:13 28.85976 -13.65480 1698 ft 178 kts 22°
2026-05-08 21:13 28.87035 -13.64869 1494 ft 162 kts 21°
2026-05-08 21:13 28.88013 -13.64304 1272 ft 153 kts 19°
2026-05-08 21:13 28.88946 -13.63765 1071 ft 149 kts 21°
2026-05-08 21:14 28.89853 -13.63241 876 ft 144 kts 21°
2026-05-08 21:14 28.90754 -13.62718 671 ft 147 kts 19°
2026-05-08 21:14 28.91671 -13.62182 503 ft 149 kts 22°
2026-05-08 21:14 28.92589 -13.61641 315 ft 146 kts 23°
2026-05-08 21:15 28.93499 -13.61122 100 ft 145 kts 20°
2026-05-08 21:15 28.94361 -13.60628 31 ft 122 kts 26°
2026-05-08 21:15 28.94873 -13.60336 46 ft 52 kts 27°
2026-05-08 21:15 28.95092 -13.60225 49 ft 28 kts 18°
2026-05-08 21:16 28.95253 -13.60208 49 ft 14 kts
2026-05-08 21:16 28.95295 -13.60212 50 ft 7 kts 346°
2026-05-08 21:16 28.95336 -13.60267 50 ft 12 kts 298°
2026-05-08 21:16 28.95377 -13.60358 50 ft 10 kts 295°
2026-05-08 21:17 28.95341 -13.60421 50 ft 13 kts 204°
2026-05-08 21:17 28.95248 -13.60473 50 ft 17 kts 206°
2026-05-08 21:17 28.95147 -13.60531 50 ft 16 kts 207°
2026-05-08 21:17 28.95056 -13.60606 50 ft 13 kts 219°
2026-05-08 21:18 28.95024 -13.60651 50 ft 8 kts 282°
2026-05-08 21:18 28.95053 -13.60718 50 ft 7 kts 297°
2026-05-08 21:18 28.95057 -13.60727 50 ft 0 kts 296°